Weather History for Saint Simons Island, GA

Change the Weather History Date:

Saturday, February 23, 2013

  Actual Average Record
Temperature  
Mean Temperature 71 °F 56 °F  
Max Temperature 80 °F 65 °F 82 °F (2012)
Min Temperature 61 °F 47 °F 26 °F (1963)
Degree Days  
Heating Degree Days 0 9  
Month to date heating degree days 219 257  
Since 1 July heating degree days 894 1208  
Cooling Degree Days 6 0  
Month to date cooling degree days 12 0  
Year to date cooling degree days 24 3  
Growing Degree Days 20 (Base 50)    
Moisture  
Dew Point 62 °F    
Average Humidity 81    
Maximum Humidity 100    
Minimum Humidity 62    
Precipitation  
Precipitation 1.83 in 0.13 in 1.83 in (2013)
Month to date precipitation 2.13 2.82  
Year to date precipitation 2.47 6.04  
Snow  
Snow 0.00 in - 0.00 in ()
Month to date snowfall 0.0  
Since 1 July snowfall 0.0  
Snow Depth 0.00 in    
Sea Level Pressure  
Sea Level Pressure 29.94 in    
Wind  
Wind Speed 7 mph (SW)    
Max Wind Speed 17 mph    
Max Gust Speed 24 mph    
Visibility 7 miles    
Events Rain , Thunderstorm    
T = Trace of Precipitation, MM = Missing Value Source: NWS Daily Summary

Daily Weather History Graph

Daily Weather History Graph

Search for Another Location

Airport:

Trip Planner

Search our weather history database for the weather conditions in past years. The results will help you decide how hot, cold, wet, or windy it might be!

Date:

Astronomy

Feb. 23, 2013 Rise Set
Actual Time 6:58 AM EST 6:19 PM EST
Civil Twilight 6:34 AM EST 6:44 PM EST
Nautical Twilight 6:05 AM EST 7:12 PM EST
Astronomical Twilight 5:37 AM EST 7:40 PM EST
Moon 4:32 PM EST (2/23) 5:15 AM EST (2/23)
Length of Visible Light 12h 09m
Length of Day
11h 21m
Waxing Gibbous, 95% of the Moon is Illuminated
Feb 23
Waxing Gibbous
Feb 25
Full
Mar 4
Last Quarter
Mar 11
New
Mar 19
First Quarter

Hourly Weather History & Observations

Time (EST) Temp. Dew Point Humidity Pressure Visibility Wind Dir Wind Speed Gust Speed Precip Events Conditions
12:12 AM 62.6 °F 60.8 °F 94% 30.01 in 7.0 mi North 3.5 mph - 0.02 in Rain Light Rain
12:53 AM 63.0 °F 61.0 °F 93% 30.01 in 4.0 mi NNW 4.6 mph - 0.07 in Rain Rain
1:53 AM 62.1 °F 61.0 °F 96% 29.99 in 6.0 mi North 4.6 mph - 0.08 in Rain Light Rain
2:15 AM 62.6 °F 62.6 °F 100% 29.97 in 8.0 mi Calm Calm - 0.02 in Rain Light Rain
2:53 AM 63.0 °F 62.1 °F 97% 29.96 in 10.0 mi Calm Calm - 0.02 in Rain Light Rain
3:53 AM 62.1 °F 61.0 °F 96% 29.93 in 9.0 mi ESE 3.5 mph - 0.01 in   Overcast
4:14 AM 62.6 °F 60.8 °F 94% 29.93 in 7.0 mi SE 5.8 mph - N/A   Overcast
4:29 AM 62.6 °F 62.6 °F 100% 29.93 in 6.0 mi South 3.5 mph - N/A   Overcast
4:44 AM 64.4 °F 62.6 °F 94% 29.93 in 7.0 mi South 3.5 mph - N/A   Overcast
4:53 AM 64.9 °F 64.0 °F 97% 29.94 in 8.0 mi South 5.8 mph - N/A   Overcast
5:08 AM 66.2 °F 64.4 °F 94% 29.93 in 10.0 mi SSW 6.9 mph - N/A   Overcast
5:53 AM 66.0 °F 64.9 °F 96% 29.94 in 10.0 mi SW 8.1 mph - N/A   Overcast
6:29 AM 62.6 °F 62.6 °F 100% 29.95 in 5.0 mi South 3.5 mph - N/A   Overcast
6:53 AM 63.0 °F 62.1 °F 97% 29.94 in 6.0 mi South 5.8 mph - N/A   Overcast
7:17 AM 64.4 °F 64.4 °F 100% 29.94 in 7.0 mi South 5.8 mph - N/A   Overcast
7:53 AM 64.9 °F 64.0 °F 97% 29.95 in 7.0 mi South 5.8 mph - N/A   Mostly Cloudy
8:53 AM 69.1 °F 66.0 °F 90% 29.95 in 10.0 mi SSW 6.9 mph 16.1 mph N/A   Scattered Clouds
9:01 AM 69.8 °F 66.2 °F 88% 29.95 in 10.0 mi South 6.9 mph - N/A   Mostly Cloudy
9:53 AM 71.1 °F 66.0 °F 84% 29.94 in 10.0 mi SSW 10.4 mph - N/A   Overcast
10:02 AM 71.6 °F 66.2 °F 83% 29.94 in 10.0 mi SSW 11.5 mph - N/A   Overcast
10:53 AM 72.0 °F 64.9 °F 78% 29.95 in 10.0 mi SW 11.5 mph - N/A   Overcast
11:23 AM 75.2 °F 64.4 °F 69% 29.95 in 10.0 mi WSW 12.7 mph 19.6 mph N/A   Mostly Cloudy
11:53 AM 75.0 °F 64.9 °F 71% 29.95 in 10.0 mi WSW 10.4 mph - N/A   Overcast
12:53 PM 78.1 °F 64.9 °F 64% 29.94 in 10.0 mi WSW 11.5 mph - N/A   Mostly Cloudy
1:53 PM 77.0 °F 64.9 °F 66% 29.91 in 10.0 mi WNW 8.1 mph - N/A   Overcast
2:53 PM 69.1 °F 64.0 °F 84% 29.92 in 10.0 mi NNW 9.2 mph 17.3 mph 0.01 in   Overcast
3:53 PM 71.1 °F 62.1 °F 73% 29.88 in 10.0 mi NW 5.8 mph - N/A   Overcast
4:53 PM 66.9 °F 61.0 °F 81% 29.88 in 10.0 mi ESE 4.6 mph - N/A   Mostly Cloudy
5:53 PM 64.0 °F 61.0 °F 90% 29.87 in 10.0 mi East 4.6 mph - N/A   Overcast
6:53 PM 63.0 °F 61.0 °F 93% 29.88 in 10.0 mi ESE 3.5 mph - N/A   Overcast
7:24 PM 64.4 °F 60.8 °F 88% 29.92 in 2.0 mi WSW 4.6 mph - 0.10 in Rain , Thunderstorm Thunderstorms and Rain
7:29 PM 62.6 °F 60.8 °F 94% 29.92 in 0.8 mi NW 9.2 mph - 0.26 in Rain , Thunderstorm Heavy Thunderstorms and Rain
7:36 PM 62.6 °F 62.6 °F 100% 29.94 in 0.8 mi NNW 12.7 mph 18.4 mph 0.53 in Rain , Thunderstorm Heavy Thunderstorms and Rain
7:39 PM 62.6 °F 62.6 °F 100% 29.94 in 1.0 mi NNW 13.8 mph - 0.61 in Rain , Thunderstorm Heavy Thunderstorms and Rain
7:53 PM 63.0 °F 61.0 °F 93% 29.95 in 1.0 mi WNW 10.4 mph 19.6 mph 1.07 in Rain , Thunderstorm Heavy Thunderstorms and Rain
8:02 PM 62.6 °F 60.8 °F 94% 29.95 in 1.5 mi Variable 3.5 mph - 0.12 in Rain , Thunderstorm Heavy Thunderstorms and Rain
8:09 PM 62.6 °F 60.8 °F 94% 29.96 in 2.0 mi Variable 3.5 mph - 0.17 in Rain Rain
8:15 PM 62.6 °F 60.8 °F 94% 29.96 in 3.0 mi WSW 5.8 mph - 0.19 in Rain Rain
8:24 PM 62.6 °F 60.8 °F 94% 29.95 in 2.0 mi WSW 4.6 mph - 0.26 in Rain Heavy Rain
8:40 PM 62.6 °F 60.8 °F 94% 29.96 in 3.0 mi WNW 3.5 mph - 0.32 in Rain Rain
8:53 PM 62.1 °F 60.1 °F 93% 29.96 in 5.0 mi Variable 3.5 mph - 0.34 in Rain Light Rain
9:53 PM 62.1 °F 60.1 °F 93% 29.94 in 10.0 mi ESE 4.6 mph - 0.12 in Rain Light Rain
10:53 PM 61.0 °F 60.1 °F 97% 29.92 in 10.0 mi SE 6.9 mph - 0.00 in   Overcast
11:53 PM 61.0 °F 59.0 °F 93% 29.86 in 9.0 mi SSE 12.7 mph - 0.12 in Rain Light Rain